Weather in Manhattan

United States     39°10′43″N   96°33′42″W
temp.,
°C
wind,
m/s
gust,
m/s
humid.,
%
clouds,
%
prec.,
mm/h
press.,
hPa
HPBL,
m
25 may, wed
wed2501:00+15ese479980 1.7 1006335
04:00+14ese3699100 0.1 1005249
07:00+14e2497100 0.2 1006206
10:00+13nne5798100 1.8 1006294
13:00+11n91696100 8.0 1004481
16:00+11n101896100 7.4 1003603
19:00+11n61396100 16.3 1003831
22:00+11n61296100 6.3 1005822
26 may, thu
thu2601:00+11nne61197100 7.1 1005714
04:00+10n61196100 0.4 1006594
07:00+10nnw71196100 0.7 1008636
10:00+11n71194100 0.1 1009607
13:00+12nnw71090100 0.1 1011695
16:00+16nnw8107681 0.1 1010951
19:00+17n510743 0.1 10101079
22:00+12n33880 0.0 101230
27 may, fri
fri2701:00+10nw22890 0.0 101322
04:00+9nw22885 0.0 101422
07:00+11nnw23870 0.0 101548
10:00+18nnw23660 0.0 1015408
13:00+22wsw11530 0.0 1014854
16:00+25sse23525 0.0 10121162
19:00+24sse46682 0.0 1010290
22:00+17se412865 0.0 1010211
28 may, sat
sat2801:00+16se412910 0.0 1010265
04:00+16sse51588100 0.0 1009367
07:00+17sse4148488 0.0 1008437
10:00+21s9137256 0.0 1006815
13:00+26s8106510 0.0 10031164
16:00+28s8106220 0.0 10001333
19:00+28s61272100 0.0 999629
22:00+25sse71785100 0.0 998664
29 may, sun
sun2901:00+24s81971100 0.0 996805
04:00+25s9215237 0.0 995794
07:00+24ssw10235499 0.0 995629
10:00+26ssw102057100 0.0 996762
13:00+30ssw10175898 0.0 996883
16:00+31s12175721 0.0 9961016
19:00+28s132267100 0.0 996880
22:00+26s13256399 0.0 999715